Location: Newark
(52.0178°N, 4.7453°W)
Time: 04:31:14
(UTC+00:00)

ISS - Pass Details

Date: 28 March 2019
Orbit: 408 x 410 km, 51.6° (Epoch: 23 April)

Event Time Altitude Azimuth Distance (km) Brightness Sun altitude
Rises 19:51:38 0° 259° (W) 2,335 1.2 -10.7°
Reaches altitude 10° 19:53:44 10° 258° (WSW) 1,474 0.0 -11.0°
Maximum altitude 19:57:02 79° 172° (S) 422 -3.9 -11.5°
Enters shadow 19:59:22 18° 86° (E) 1,081 -2.2 -11.9°
